Date String (YYYY-MM-DD hh:mm:ss) UTC,Instrument flags,Ambient pressure (hPa),Sample flow (lpm),Bypass flow (lpm),Sample temperature (°C),Ambient temperature (°C),ASC tube jacket temperature (°C),LED temperature (°C),Box temperature (°C),Sample RH (%),Span deviation,Mass concentration (μg/m³),Mass concentration (μg/m³),Mass concentration (μg/m³)
DateTimeUTC,F1_M11,P_M11,Q1_M11,Q2_M11,T1_M11,T2_M11,T3_M11,T4_M11,T5_M11,U1_M11,ZSPAN_M11,X0_M11,X2_M11,X1_M11
2022-02-23 00:00:00,,0828.4,5.00,0.00,22.5,21.7,00.0,31.5,24.3,03.2,0001.7,0009.16,0005.26,0004.85
2022-02-23 00:01:00,,0828.1,5.01,0.00,22.5,21.7,00.0,31.5,24.2,03.2,0001.7,0009.21,0005.28,0004.85
2022-02-23 00:02:00,,0828.2,5.00,0.00,22.5,21.6,00.0,31.5,24.2,03.3,0001.9,0009.16,0005.30,0004.87
2022-02-23 00:03:00,,0828.1,4.98,0.00,22.5,21.7,00.0,31.5,24.2,03.3,0002.1,0009.14,0005.30,0004.87
2022-02-23 00:04:00,,0828.2,5.01,0.00,22.6,22.3,00.0,31.5,24.4,03.3,0000.3,0009.20,0005.30,0004.87
2022-02-23 00:05:00,,0828.4,5.00,0.00,22.7,23.0,00.0,31.6,24.6,03.2,0000.0,0009.22,0005.31,0004.87
2022-02-23 00:06:00,,0828.2,5.00,0.00,22.8,23.2,00.0,31.6,24.8,03.3,0000.0,0008.87,0005.29,0004.86
2022-02-23 00:07:00,,0828.2,5.00,0.00,22.8,23.0,00.0,31.6,24.8,03.3,0000.0,0008.36,0005.25,0004.85
2022-02-23 00:08:00,,0828.3,4.99,0.00,22.8,22.8,00.0,31.6,24.7,03.3,0000.0,0008.33,0005.25,0004.85
2022-02-23 00:09:00,,0828.3,5.01,0.00,22.8,22.6,00.0,31.6,24.7,03.3,0000.0,0008.43,0005.28,0004.85
2022-02-23 00:10:00,,0828.2,4.98,0.00,22.8,22.5,00.0,31.6,24.6,03.3,0000.4,0008.43,0005.29,0004.85
2022-02-23 00:11:00,,0828.2,5.01,0.00,22.8,22.3,00.0,31.6,24.6,03.3,0003.9,0008.39,0005.29,0004.85
2022-02-23 00:12:00,,0828.2,5.01,0.00,22.8,22.2,00.0,31.6,24.5,03.3,0001.3,0008.62,0005.30,0004.87
2022-02-23 00:13:00,,0828.3,5.00,0.00,22.7,22.1,00.0,31.6,24.5,03.3,0003.3,0008.73,0005.28,0004.88
2022-02-23 00:14:00,,0828.4,4.99,0.00,22.7,22.0,00.0,31.6,24.5,03.4,0003.4,0008.66,0005.27,0004.89
2022-02-23 00:15:00,,0828.3,5.01,0.00,22.7,21.9,00.0,31.6,24.4,03.4,0003.3,0008.92,0005.29,0004.89
2022-02-23 00:16:00,,0828.3,5.00,0.00,22.6,21.9,00.0,31.6,24.4,03.3,0003.0,0008.97,0005.31,0004.90
2022-02-23 00:17:00,,0828.3,5.01,0.00,22.6,21.8,00.0,31.6,24.4,03.3,0002.3,0009.07,0005.35,0004.92
2022-02-23 00:18:00,,0828.3,5.00,0.00,22.6,21.8,00.0,31.6,24.4,03.3,0002.2,0009.50,0005.37,0004.93
2022-02-23 00:19:00,,0828.2,5.00,0.00,22.6,21.7,00.0,31.6,24.3,03.3,0001.8,0009.56,0005.37,0004.92
2022-02-23 00:20:00,,0828.3,4.99,0.00,22.6,21.7,00.0,31.6,24.3,03.3,0001.1,0009.56,0005.37,0004.92
2022-02-23 00:21:00,,0828.3,5.00,0.00,22.5,21.7,00.0,31.6,24.3,03.3,0000.5,0009.52,0005.33,0004.90
2022-02-23 00:22:00,,0828.3,5.00,0.00,22.5,21.7,00.0,31.5,24.2,03.3,0000.4,0009.64,0005.34,0004.89
2022-02-23 00:23:00,,0828.4,5.00,0.00,22.6,22.2,00.0,31.6,24.3,03.2,-000.0,0009.38,0005.32,0004.87
2022-02-23 00:24:00,,0828.5,5.00,0.00,22.7,22.9,00.0,31.6,24.6,03.2,-000.4,0009.20,0005.30,0004.85
2022-02-23 00:25:00,,0828.7,5.00,0.00,22.8,23.2,00.0,31.6,24.8,03.1,-000.4,0009.22,0005.29,0004.83
2022-02-23 00:26:00,,0828.7,5.00,0.00,22.8,23.0,00.0,31.7,24.8,03.1,0000.2,0008.86,0005.24,0004.83
2022-02-23 00:27:00,,0828.7,5.00,0.00,22.8,22.8,00.0,31.7,24.8,03.2,0000.0,0009.11,0005.21,0004.82
2022-02-23 00:28:00,,0828.6,5.00,0.00,22.8,22.6,00.0,31.7,24.7,03.3,0000.3,0009.45,0005.20,0004.81
2022-02-23 00:29:00,,0828.7,5.00,0.00,22.8,22.5,00.0,31.7,24.6,03.3,-000.0,0009.08,0005.21,0004.80
2022-02-23 00:30:00,,0828.7,5.00,0.00,22.8,22.3,00.0,31.7,24.6,03.3,-000.0,0009.01,0005.22,0004.80
2022-02-23 00:31:00,,0828.8,5.01,0.00,22.8,22.2,00.0,31.7,24.5,03.4,-000.3,0008.95,0005.19,0004.80
2022-02-23 00:32:00,,0828.7,4.99,0.00,22.7,22.1,00.0,31.7,24.5,03.4,0000.1,0008.96,0005.20,0004.81
2022-02-23 00:33:00,,0828.7,4.99,0.00,22.7,22.0,00.0,31.6,24.5,03.4,0000.2,0008.86,0005.20,0004.82
2022-02-23 00:34:00,,0828.7,5.00,0.00,22.7,21.9,00.0,31.6,24.4,03.4,0000.4,0008.93,0005.23,0004.83
2022-02-23 00:35:00,,0828.6,5.00,0.00,22.7,21.8,00.0,31.6,24.4,03.4,0000.3,0008.95,0005.26,0004.85
2022-02-23 00:36:00,,0828.9,5.00,0.00,22.6,21.8,00.0,31.6,24.4,03.4,0000.1,0008.91,0005.24,0004.85
2022-02-23 00:37:00,,0829.2,4.99,0.00,22.6,21.7,00.0,31.6,24.3,03.4,0000.0,0008.94,0005.24,0004.85
2022-02-23 00:38:00,,0828.7,5.00,0.00,22.6,21.7,00.0,31.6,24.3,03.4,0000.5,0008.66,0005.25,0004.85
2022-02-23 00:39:00,,0828.6,5.00,0.00,22.5,21.6,00.0,31.6,24.3,03.4,0000.7,0008.28,0005.25,0004.85
2022-02-23 00:40:00,,0828.8,5.00,0.00,22.5,21.8,00.0,31.6,24.3,03.4,0001.0,0008.23,0005.23,0004.84
2022-02-23 00:41:00,,0828.9,5.01,0.00,22.6,22.4,00.0,31.6,24.4,03.4,0000.9,0008.17,0005.22,0004.83
2022-02-23 00:42:00,,0829.0,5.00,0.00,22.7,23.0,00.0,31.6,24.6,03.4,0000.0,0008.25,0005.24,0004.83
2022-02-23 00:43:00,,0829.0,5.00,0.00,22.8,23.1,00.0,31.7,24.8,03.4,0000.0,0008.25,0005.23,0004.81
2022-02-23 00:44:00,,0828.9,4.99,0.00,22.8,22.9,00.0,31.7,24.8,03.4,0000.0,0008.20,0005.21,0004.79
2022-02-23 00:45:00,,0828.9,5.01,0.00,22.8,22.7,00.0,31.7,24.7,03.3,0000.0,0008.19,0005.20,0004.79
2022-02-23 00:46:00,,0829.0,5.00,0.00,22.8,22.5,00.0,31.7,24.6,03.3,0000.0,0008.25,0005.19,0004.78
2022-02-23 00:47:00,,0829.0,5.01,0.00,22.8,22.4,00.0,31.7,24.6,03.3,0000.0,0008.33,0005.21,0004.78
2022-02-23 00:48:00,,0828.9,5.00,0.00,22.8,22.2,00.0,31.7,24.5,03.3,0000.0,0008.45,0005.28,0004.80
2022-02-23 00:49:00,,0828.8,4.99,0.00,22.7,22.1,00.0,31.7,24.5,03.4,0000.5,0008.50,0005.31,0004.83
2022-02-23 00:50:00,,0828.8,4.99,0.00,22.7,22.0,00.0,31.7,24.4,03.4,0000.2,0008.46,0005.31,0004.83
2022-02-23 00:51:00,,0828.9,5.00,0.00,22.7,21.9,00.0,31.6,24.4,03.4,0000.0,0008.46,0005.29,0004.84
2022-02-23 00:52:00,,0828.9,5.00,0.00,22.6,21.8,00.0,31.6,24.4,03.4,0000.0,0008.51,0005.30,0004.84
2022-02-23 00:53:00,,0829.0,5.00,0.00,22.6,21.8,00.0,31.6,24.3,03.4,0000.0,0008.49,0005.30,0004.85
2022-02-23 00:54:00,,0828.9,5.00,0.00,22.6,21.7,00.0,31.6,24.3,03.4,0000.0,0008.50,0005.31,0004.86
2022-02-23 00:55:00,,0829.0,5.00,0.00,22.6,21.7,00.0,31.6,24.3,03.4,0000.8,0008.77,0005.35,0004.89
2022-02-23 00:56:00,,0829.0,5.00,0.00,22.5,21.6,00.0,31.6,24.2,03.4,0001.6,0008.82,0005.37,0004.91
2022-02-23 00:57:00,,0829.0,5.01,0.00,22.5,21.8,00.0,31.6,24.2,03.4,0001.0,0008.88,0005.39,0004.92
2022-02-23 00:58:00,,0829.1,5.01,0.00,22.6,22.4,00.0,31.6,24.4,03.4,0000.8,0008.87,0005.38,0004.92
2022-02-23 00:59:00,,0829.1,5.00,0.00,22.7,23.0,00.0,31.6,24.6,03.4,0001.4,0008.83,0005.37,0004.92
